STARLINK-31977, 59892

Orbit data source: Space-Track

STARLINK-31977, 59892 is a payload satellite owned by SpaceX/Seattle (US) in LEO that was launched on Tue, 28 May 2024 UTC via an FALCON 9 launch vehicle from the Air Force Eastern Test Range (AFETR). Payload-class satellites include a variety of spacecraft equipped with specific instruments for various scientific and technological missions. These include communications satellites like Starlink; space stations such as the ISS; scientific satellites like the Hubble; Earth observation satellites from companies like Planet Labs, Umbra, and HawkEye 360; GPS; miniature CubeSats for education and research; and military/defense satellites.

Loading next visibility...
Identifier
59892, 2024-100H
Orbit
LEO
Country
Flag of USUS
Related business
Manufacturer
SpaceX/Seattle
Mission
Operational Commercial Communications
Bus & Motor
STARLINK V2M, Unknown motor
Mass
730 kg wet, ~700 kg dry
Launch date (UTC)
2024-05-28 (1 year ago)
Launch vehicle
FALCON 9
Launch site
Air Force Eastern Test Range (AFETR)
Object type
Payload
Rocket body
Debris
Shape & HBR
Box + 2 Pan, 17.7 m
Radar Cross Section
33.884 m², Large (>1 m²)

Expand to show TLE details & history
Last TLE update: 19 hours ago

TLE from 19 hours ago
0 STARLINK-31977
1 59892U 24100H   25310.78378681  .00000295  00000-0  20241-4 0  9998
2 59892  43.0044  92.2723 0001417 275.7681  84.3009 15.27579543 82444
Epoch: 2025-11-06T18:48Z
TLE epoch observation values (Epoch: 2025-11-06T18:48:39.180Z)
Latitude
-0.00002°
Longitude
123.87188°
Altitude
482.73 km
Speed
7.626 km/s
True Right ascension
06h 09m 05s
True Declination
0° 00' 00"
Sunlit
Object was in full shadow at epoch
Visualization orbit readout
Latitude
Unknown
Longitude
Unknown
Altitude
Unknown
Speed
Unknown
Apparent Right ascension
Unknown
Apparent Declination
Unknown
Sunlit
N/A
Visualization observer readout
Local Sidereal Time
10:06:21
Azimuth
Unknown
Elevation
Unknown
Doppler factor
Unknown
Orbital elements
Apogee altitude
485.967 km
Perigee altitude
484.022 km
Semi-major axis
6,863.132 km
Eccentricity
0.00014
Inclination
43.0044°
RAAN
92.2723°
Arg. of periapsis
275.7681°
True anomaly
84.31706°
Mean anomaly
84.3009°
Eccentric anomaly
84.30898°
Mean motion
3.81733 °/min
Orbital period
94.31 mins
BSTAR
0.000020241
Loading maneuver chart data...
Computing Atmospheric mass density...
Loading historical data...
Loading historical data...
Loading historical data...
Loading historical data...
Loading historical data...
Loading historical data...
Loading historical data...

Documentation

Showing up to 5 results
|